星链-4581 (STARLINK-4581 )

导读 | 豆包AI

STARLINK-4581是美国太空探索技术公司星链星座的成员,于2022年8月19日发射入轨,属于星链项目低轨互联网卫星组网的一部分。这类卫星依托猎鹰九号火箭发射,旨在为全球提供高速低延迟宽带互联网服务,星链系统也在持续推进卫星组网部署与更新。

Basic Information
目录编号:
53576
目录名称:
STARLINK-4581
国际标识:
2022-101BB
轨道中心:
EARTH
卫星名称:
星链-4581
卫星全名:
星链-4581 (STARLINK-4581 )
卫星状态:
在轨 (已飞行1304 天)
发射日期:
2022-08-19 UTC
国别 :
美国 (US)
星等 :
--
Orbit Information
数据来源 国际轨道数据 AOE轨道数据
星历时间 2026-03-15T05:27:08+0800
10小时前
查看轨道信息
2026-03-14T16:00:00+0800
1天前
查看轨道信息
半长轴 6917.885km 6917.873km
偏心率 0.000148 0.0001348
轨道倾角 53.219° 53.216°
近地点辐角 85.272° 85.067°
升交点赤经 30.558° 33.074°
平近点角 274.844° 108.807°
近地点 538.724km 538.803km
远地点 540.772km 540.669km
周期 95.438分钟 95.437分钟
每日圈数 15.088387 15.088427
Detailed Information
固有亮度:
5
最大亮度:
2.5
卫星平台:
Starlink v1.5
覆盖范围:
全球
运营商:
太空探索技术公司
运营商所在国:
美国
制造商(研发单位):
太空探索技术公司
制造商所在国:
美国
使用方式:
暂无
Satellite Introduction
星链(Starlink)计划是由太空探索技术公司(SpaceX)提出的一个巨型低轨卫星互联网星座项目,计划在2019年至2024年间在太空搭建由约1.2万颗卫星组成的“星链”网络,其中1584颗将部署在地球上空550千米处的近地轨道,并从2020年开始工作。该卫星仍在工作。
2D Orbit Map
3D Orbit Map
Orbit Altitude Analysis Chart
Orbit Inclination Analysis Chart
Orbit Comprehensive Analysis Chart
View Comprehensive Chart